Location: Debolt
(55.2626°N, 118.0981°W)
Time: 21:52:06
(UTC+00:00)

MOZHAYETS 4 - Pass Details

Date: 10 December 2023
Orbit: 654 x 672 km, 98.3° (Epoch: 01 March)

Event Time Altitude Azimuth Distance (km) Brightness Sun altitude
Exits shadow 01:01:10 - 11° (N) 3,005 10.8 -12.7°
Reaches altitude 10° 01:03:26 10° 4° (N) 2,121 10.1 -13.0°
Maximum altitude 01:07:41 37° 297° (WNW) 1,049 9.1 -13.6°
Drops below altitude 10° 01:11:55 10° 231° (SW) 2,108 11.5 -14.1°
Sets 01:14:16 0° 223° (SW) 3,017 12.3 -14.4°
